"Sample Date","Sample Time","Sensor Name","Sample Value","Units","Flow Rate","Sample Interval","Sample Volume","Laser Status","Number Channels","Micron Size 0","Counts/Channel 0","Micron Size 1","Counts/Channel 1","Micron Size 2","Counts/Channel 2","Micron Size 3","Counts/Channel 3","Micron Size 4","Counts/Channel 4","Micron Size 5","Counts/Channel 5","Micron Size 6","Counts/Channel 6","Micron Size 7","Counts/Channel 7","Micron Size 8","Counts/Channel 8","Micron Size 9","Counts/Channel 9","Micron Size 10","Counts/Channel 10","Micron Size 11","Counts/Channel 11","Micron Size 12","Counts/Channel 12","Micron Size 13","Counts/Channel 13","Micron Size 14","Counts/Channel 14","Micron Size 15","Counts/Channel 15","Micron Size 16","Counts/Channel 16","Micron Size 17","Counts/Channel 17","Micron Size 18","Counts/Channel 18","Micron Size 19","Counts/Channel 19","Micron Size 20","Counts/Channel 20","Micron Size 21","Counts/Channel 21","Micron Size 22","Counts/Channel 22","Micron Size 23","Counts/Channel 23","Micron Size 24","Counts/Channel 24","Micron Size 25","Counts/Channel 25","Micron Size 26","Counts/Channel 26","Micron Size 27","Counts/Channel 27","Micron Size 28","Counts/Channel 28","Micron Size 29","Counts/Channel 29","Micron Size 30","Counts/Channel 30","Micron Size 31","Counts/Channel 31"
"07/09/06","20:00:05","AMMA06",28246.000,"cc",28266.729,6.00,2826.673,1,6,0.100,16717.000,0.200,10200.000,0.300,1185.000,0.500,102.000,1.000,42.000,5.000,0
"07/09/06","20:00:11","AMMA06",28341.000,"cc",28344.965,6.00,2834.497,1,6,0.100,16722.000,0.200,10349.000,0.300,1106.000,0.500,108.000,1.000,56.000,5.000,0
"07/09/06","20:00:17","AMMA06",28088.000,"cc",28347.162,6.00,2834.716,1,6,0.100,16792.000,0.200,10023.000,0.300,1106.000,0.500,102.000,1.000,65.000,5.000,0
"07/09/06","20:00:23","AMMA06",28296.000,"cc",28246.625,6.00,2824.663,1,6,0.100,16843.000,0.200,10175.000,0.300,1132.000,0.500,92.000,1.000,54.000,5.000,0
"07/09/06","20:00:29","AMMA06",28077.000,"cc",28364.684,6.00,2836.469,1,6,0.100,16693.000,0.200,10087.000,0.300,1164.000,0.500,93.000,1.000,40.000,5.000,0
"07/09/06","20:00:35","AMMA06",28039.000,"cc",28345.615,6.00,2834.562,1,6,0.100,16567.000,0.200,10164.000,0.300,1142.000,0.500,111.000,1.000,55.000,5.000,0
"07/09/06","20:00:41","AMMA06",28050.000,"cc",28318.193,6.00,2831.820,1,6,0.100,16674.000,0.200,10119.000,0.300,1114.000,0.500,99.000,1.000,44.000,5.000,0
"07/09/06","20:00:47","AMMA06",27540.000,"cc",28311.346,6.00,2831.135,1,6,0.100,16138.000,0.200,10058.000,0.300,1183.000,0.500,93.000,1.000,68.000,5.000,0
"07/09/06","20:00:53","AMMA06",27801.000,"cc",28261.100,6.00,2826.110,1,6,0.100,16317.000,0.200,10178.000,0.300,1169.000,0.500,91.000,1.000,46.000,5.000,0
"07/09/06","20:00:59","AMMA06",27868.000,"cc",28343.184,6.00,2834.319,1,6,0.100,16310.000,0.200,10244.000,0.300,1169.000,0.500,96.000,1.000,49.000,5.000,0
"07/09/06","20:01:05","AMMA06",27745.000,"cc",28277.676,6.00,2827.768,1,6,0.100,16365.000,0.200,10102.000,0.300,1125.000,0.500,114.000,1.000,39.000,5.000,0
"07/09/06","20:01:11","AMMA06",27352.000,"cc",28337.760,6.00,2833.776,1,6,0.100,15986.000,0.200,10112.000,0.300,1104.000,0.500,93.000,1.000,57.000,5.000,0
"07/09/06","20:01:17","AMMA06",27267.000,"cc",28337.299,6.00,2833.730,1,6,0.100,15848.000,0.200,10113.000,0.300,1158.000,0.500,105.000,1.000,43.000,5.000,0
"07/09/06","20:01:23","AMMA06",27125.000,"cc",28320.846,6.00,2832.085,1,6,0.100,15915.000,0.200,9929.000,0.300,1123.000,0.500,105.000,1.000,53.000,5.000,0
"07/09/06","20:01:29","AMMA06",27191.000,"cc",28335.162,6.00,2833.516,1,6,0.100,16118.000,0.200,9832.000,0.300,1086.000,0.500,117.000,1.000,38.000,5.000,0
"07/09/06","20:01:35","AMMA06",27256.000,"cc",28306.617,6.00,2830.662,1,6,0.100,15913.000,0.200,10036.000,0.300,1135.000,0.500,102.000,1.000,70.000,5.000,0
"07/09/06","20:01:41","AMMA06",27410.000,"cc",28302.789,6.00,2830.279,1,6,0.100,15991.000,0.200,10149.000,0.300,1126.000,0.500,88.000,1.000,56.000,5.000,0
"07/09/06","20:01:47","AMMA06",26794.000,"cc",28313.162,6.00,2831.316,1,6,0.100,15685.000,0.200,9920.000,0.300,1064.000,0.500,83.000,1.000,42.000,5.000,0
"07/09/06","20:01:53","AMMA06",26824.000,"cc",28322.254,6.00,2832.226,1,6,0.100,15762.000,0.200,9831.000,0.300,1070.000,0.500,110.000,1.000,51.000,5.000,0
"07/09/06","20:01:59","AMMA06",27209.000,"cc",28335.385,6.00,2833.539,1,6,0.100,16129.000,0.200,9838.000,0.300,1092.000,0.500,99.000,1.000,51.000,5.000,0
"07/09/06","20:02:05","AMMA06",27049.000,"cc",28283.766,6.00,2828.377,1,6,0.100,15820.000,0.200,10001.000,0.300,1084.000,0.500,88.000,1.000,56.000,5.000,0
"07/09/06","20:02:11","AMMA06",27158.000,"cc",28330.961,6.00,2833.096,1,6,0.100,15809.000,0.200,10015.000,0.300,1182.000,0.500,97.000,1.000,55.000,5.000,0
"07/09/06","20:02:17","AMMA06",27127.000,"cc",28353.611,6.00,2835.361,1,6,0.100,15893.000,0.200,9992.000,0.300,1086.000,0.500,106.000,1.000,50.000,5.000,0
"07/09/06","20:02:23","AMMA06",27125.000,"cc",28313.746,6.00,2831.375,1,6,0.100,15887.000,0.200,9950.000,0.300,1114.000,0.500,116.000,1.000,58.000,5.000,0
"07/09/06","20:02:29","AMMA06",27206.000,"cc",28277.250,6.00,2827.725,1,6,0.100,15778.000,0.200,10161.000,0.300,1117.000,0.500,104.000,1.000,46.000,5.000,0
"07/09/06","20:02:35","AMMA06",26739.000,"cc",28304.844,6.00,2830.485,1,6,0.100,15590.000,0.200,9914.000,0.300,1086.000,0.500,96.000,1.000,53.000,5.000,0
"07/09/06","20:02:41","AMMA06",27087.000,"cc",28317.481,6.00,2831.748,1,6,0.100,16036.000,0.200,9823.000,0.300,1086.000,0.500,89.000,1.000,53.000,5.000,0
"07/09/06","20:02:47","AMMA06",27169.000,"cc",28255.059,6.00,2825.506,1,6,0.100,15945.000,0.200,9934.000,0.300,1136.000,0.500,107.000,1.000,47.000,5.000,0
"07/09/06","20:02:53","AMMA06",27263.000,"cc",28343.565,6.00,2834.357,1,6,0.100,16075.000,0.200,9895.000,0.300,1124.000,0.500,105.000,1.000,64.000,5.000,0
"07/09/06","20:02:59","AMMA06",26662.000,"cc",28301.678,6.00,2830.168,1,6,0.100,15607.000,0.200,9771.000,0.300,1136.000,0.500,92.000,1.000,56.000,5.000,0
"07/09/06","20:03:05","AMMA06",26862.000,"cc",28362.041,6.00,2836.204,1,6,0.100,15851.000,0.200,9724.000,0.300,1131.000,0.500,100.000,1.000,56.000,5.000,0
"07/09/06","20:03:11","AMMA06",26621.000,"cc",28300.264,6.00,2830.027,1,6,0.100,15507.000,0.200,9890.000,0.300,1068.000,0.500,88.000,1.000,68.000,5.000,0
"07/09/06","20:03:17","AMMA06",26913.000,"cc",28312.555,6.00,2831.256,1,6,0.100,15749.000,0.200,9860.000,0.300,1140.000,0.500,112.000,1.000,52.000,5.000,0
"07/09/06","20:03:23","AMMA06",26989.000,"cc",28345.486,6.00,2834.549,1,6,0.100,16024.000,0.200,9743.000,0.300,1089.000,0.500,92.000,1.000,41.000,5.000,0
"07/09/06","20:03:29","AMMA06",26661.000,"cc",28305.037,6.00,2830.504,1,6,0.100,15749.000,0.200,9690.000,0.300,1077.000,0.500,89.000,1.000,56.000,5.000,0
"07/09/06","20:03:35","AMMA06",26603.000,"cc",28317.020,6.00,2831.702,1,6,0.100,15603.000,0.200,9804.000,0.300,1033.000,0.500,110.000,1.000,53.000,5.000,0
"07/09/06","20:03:41","AMMA06",26656.000,"cc",28331.654,6.00,2833.166,1,6,0.100,15685.000,0.200,9766.000,0.300,1040.000,0.500,106.000,1.000,59.000,5.000,0
"07/09/06","20:03:47","AMMA06",26808.000,"cc",28282.303,6.00,2828.231,1,6,0.100,15690.000,0.200,9868.000,0.300,1102.000,0.500,95.000,1.000,53.000,5.000,0
"07/09/06","20:03:53","AMMA06",26625.000,"cc",28370.729,6.00,2837.073,1,6,0.100,15646.000,0.200,9736.000,0.300,1081.000,0.500,112.000,1.000,50.000,5.000,0
"07/09/06","20:03:59","AMMA06",26868.000,"cc",28310.623,6.00,2831.063,1,6,0.100,15794.000,0.200,9833.000,0.300,1081.000,0.500,113.000,1.000,47.000,5.000,0
"07/09/06","20:04:05","AMMA06",27005.000,"cc",28295.092,6.00,2829.509,1,6,0.100,15874.000,0.200,9901.000,0.300,1067.000,0.500,118.000,1.000,45.000,5.000,0
"07/09/06","20:04:11","AMMA06",26507.000,"cc",28329.096,6.00,2832.910,1,6,0.100,15499.000,0.200,9812.000,0.300,1058.000,0.500,85.000,1.000,53.000,5.000,0
"07/09/06","20:04:17","AMMA06",26283.000,"cc",28342.557,6.00,2834.256,1,6,0.100,15369.000,0.200,9664.000,0.300,1072.000,0.500,109.000,1.000,69.000,5.000,0
"07/09/06","20:04:23","AMMA06",26462.000,"cc",28320.565,6.00,2832.057,1,6,0.100,15455.000,0.200,9711.000,0.300,1154.000,0.500,103.000,1.000,39.000,5.000,0
"07/09/06","20:04:29","AMMA06",26672.000,"cc",28280.746,6.00,2828.075,1,6,0.100,15665.000,0.200,9745.000,0.300,1094.000,0.500,108.000,1.000,60.000,5.000,0
"07/09/06","20:04:35","AMMA06",26299.000,"cc",28290.170,6.00,2829.017,1,6,0.100,15502.000,0.200,9585.000,0.300,1078.000,0.500,88.000,1.000,46.000,5.000,0
"07/09/06","20:04:41","AMMA06",26349.000,"cc",28352.252,6.00,2835.225,1,6,0.100,15528.000,0.200,9600.000,0.300,1071.000,0.500,97.000,1.000,53.000,5.000,0
"07/09/06","20:04:47","AMMA06",26149.000,"cc",28395.258,6.00,2839.526,1,6,0.100,15486.000,0.200,9408.000,0.300,1090.000,0.500,111.000,1.000,54.000,5.000,0
"07/09/06","20:04:53","AMMA06",26096.000,"cc",28260.152,6.00,2826.015,1,6,0.100,15268.000,0.200,9595.000,0.300,1057.000,0.500,106.000,1.000,70.000,5.000,0
"07/09/06","20:04:59","AMMA06",26381.000,"cc",28326.205,6.00,2832.621,1,6,0.100,15467.000,0.200,9595.000,0.300,1154.000,0.500,104.000,1.000,61.000,5.000,0
"07/09/06","20:05:05","AMMA06",26159.000,"cc",28312.875,6.00,2831.288,1,6,0.100,15334.000,0.200,9592.000,0.300,1081.000,0.500,96.000,1.000,56.000,5.000,0
"07/09/06","20:05:11","AMMA06",25998.000,"cc",28285.387,6.00,2828.539,1,6,0.100,15113.000,0.200,9656.000,0.300,1092.000,0.500,91.000,1.000,46.000,5.000,0
"07/09/06","20:05:17","AMMA06",26036.000,"cc",28329.801,6.00,2832.980,1,6,0.100,15232.000,0.200,9563.000,0.300,1102.000,0.500,91.000,1.000,48.000,5.000,0
"07/09/06","20:05:23","AMMA06",26171.000,"cc",28283.191,6.00,2828.319,1,6,0.100,15278.000,0.200,9555.000,0.300,1167.000,0.500,104.000,1.000,67.000,5.000,0
"07/09/06","20:05:29","AMMA06",26341.000,"cc",28355.395,6.00,2835.540,1,6,0.100,15384.000,0.200,9712.000,0.300,1103.000,0.500,93.000,1.000,49.000,5.000,0
"07/09/06","20:05:35","AMMA06",26173.000,"cc",28307.313,6.00,2830.731,1,6,0.100,15227.000,0.200,9647.000,0.300,1143.000,0.500,98.000,1.000,58.000,5.000,0
"07/09/06","20:05:41","AMMA06",26194.000,"cc",28343.246,6.00,2834.325,1,6,0.100,15294.000,0.200,9692.000,0.300,1069.000,0.500,86.000,1.000,53.000,5.000,0
"07/09/06","20:05:47","AMMA06",26063.000,"cc",28335.758,6.00,2833.576,1,6,0.100,15138.000,0.200,9671.000,0.300,1109.000,0.500,103.000,1.000,42.000,5.000,0
"07/09/06","20:05:53","AMMA06",26038.000,"cc",28315.615,6.00,2831.562,1,6,0.100,15217.000,0.200,9608.000,0.300,1068.000,0.500,97.000,1.000,48.000,5.000,0
"07/09/06","20:05:59","AMMA06",25680.000,"cc",28352.002,6.00,2835.200,1,6,0.100,15069.000,0.200,9359.000,0.300,1109.000,0.500,93.000,1.000,50.000,5.000,0
"07/09/06","20:06:05","AMMA06",26100.000,"cc",28331.529,6.00,2833.153,1,6,0.100,15270.000,0.200,9539.000,0.300,1152.000,0.500,100.000,1.000,39.000,5.000,0
"07/09/06","20:06:11","AMMA06",25955.000,"cc",28281.816,6.00,2828.182,1,6,0.100,15129.000,0.200,9617.000,0.300,1082.000,0.500,81.000,1.000,46.000,5.000,0
"07/09/06","20:06:17","AMMA06",25964.000,"cc",28328.854,6.00,2832.886,1,6,0.100,15084.000,0.200,9627.000,0.300,1088.000,0.500,114.000,1.000,51.000,5.000,0
"07/09/06","20:06:23","AMMA06",26054.000,"cc",28302.568,6.00,2830.257,1,6,0.100,15225.000,0.200,9592.000,0.300,1103.000,0.500,84.000,1.000,50.000,5.000,0
"07/09/06","20:06:29","AMMA06",25905.000,"cc",28384.264,6.00,2838.427,1,6,0.100,15062.000,0.200,9595.000,0.300,1102.000,0.500,89.000,1.000,57.000,5.000,0
"07/09/06","20:06:35","AMMA06",25754.000,"cc",28297.262,6.00,2829.726,1,6,0.100,14995.000,0.200,9559.000,0.300,1047.000,0.500,99.000,1.000,54.000,5.000,0
"07/09/06","20:06:41","AMMA06",26132.000,"cc",28292.129,6.00,2829.213,1,6,0.100,15170.000,0.200,9707.000,0.300,1110.000,0.500,98.000,1.000,47.000,5.000,0
"07/09/06","20:06:47","AMMA06",26062.000,"cc",28337.760,6.00,2833.776,1,6,0.100,15067.000,0.200,9624.000,0.300,1212.000,0.500,109.000,1.000,50.000,5.000,0
"07/09/06","20:06:53","AMMA06",26059.000,"cc",28288.481,6.00,2828.848,1,6,0.100,15157.000,0.200,9674.000,0.300,1093.000,0.500,95.000,1.000,40.000,5.000,0
"07/09/06","20:06:59","AMMA06",26006.000,"cc",28271.977,6.00,2827.198,1,6,0.100,15079.000,0.200,9706.000,0.300,1075.000,0.500,93.000,1.000,53.000,5.000,0
"07/09/06","20:07:05","AMMA06",26038.000,"cc",28358.512,6.00,2835.851,1,6,0.100,15163.000,0.200,9595.000,0.300,1129.000,0.500,97.000,1.000,54.000,5.000,0
"07/09/06","20:07:11","AMMA06",26185.000,"cc",28333.047,6.00,2833.305,1,6,0.100,15273.000,0.200,9588.000,0.300,1184.000,0.500,91.000,1.000,49.000,5.000,0
"07/09/06","20:07:17","AMMA06",26292.000,"cc",28317.022,6.00,2831.702,1,6,0.100,15221.000,0.200,9736.000,0.300,1174.000,0.500,106.000,1.000,55.000,5.000,0
"07/09/06","20:07:23","AMMA06",26163.000,"cc",28317.283,6.00,2831.729,1,6,0.100,15153.000,0.200,9678.000,0.300,1181.000,0.500,99.000,1.000,52.000,5.000,0
"07/09/06","20:07:29","AMMA06",25992.000,"cc",28330.830,6.00,2833.083,1,6,0.100,15083.000,0.200,9613.000,0.300,1161.000,0.500,93.000,1.000,42.000,5.000,0
"07/09/06","20:07:35","AMMA06",26083.000,"cc",28349.098,6.00,2834.910,1,6,0.100,15120.000,0.200,9649.000,0.300,1176.000,0.500,93.000,1.000,45.000,5.000,0
"07/09/06","20:07:41","AMMA06",25850.000,"cc",28300.106,6.00,2830.011,1,6,0.100,14977.000,0.200,9578.000,0.300,1133.000,0.500,116.000,1.000,46.000,5.000,0
"07/09/06","20:07:47","AMMA06",25710.000,"cc",28260.410,6.00,2826.041,1,6,0.100,14845.000,0.200,9536.000,0.300,1190.000,0.500,84.000,1.000,55.000,5.000,0
"07/09/06","20:07:53","AMMA06",25795.000,"cc",28354.928,6.00,2835.493,1,6,0.100,14855.000,0.200,9702.000,0.300,1113.000,0.500,83.000,1.000,42.000,5.000,0
"07/09/06","20:07:59","AMMA06",25408.000,"cc",28337.809,6.00,2833.781,1,6,0.100,14618.000,0.200,9528.000,0.300,1126.000,0.500,89.000,1.000,47.000,5.000,0
"07/09/06","20:08:05","AMMA06",25883.000,"cc",28328.129,6.00,2832.813,1,6,0.100,14887.000,0.200,9687.000,0.300,1160.000,0.500,104.000,1.000,45.000,5.000,0
"07/09/06","20:08:11","AMMA06",26268.000,"cc",28278.213,6.00,2827.822,1,6,0.100,15029.000,0.200,9877.000,0.300,1189.000,0.500,108.000,1.000,65.000,5.000,0
"07/09/06","20:08:17","AMMA06",25885.000,"cc",28285.758,6.00,2828.576,1,6,0.100,15003.000,0.200,9569.000,0.300,1154.000,0.500,97.000,1.000,62.000,5.000,0
"07/09/06","20:08:23","AMMA06",25805.000,"cc",28315.609,6.00,2831.561,1,6,0.100,15032.000,0.200,9445.000,0.300,1179.000,0.500,99.000,1.000,50.000,5.000,0
"07/09/06","20:08:29","AMMA06",25767.000,"cc",28372.156,6.00,2837.216,1,6,0.100,14828.000,0.200,9695.000,0.300,1100.000,0.500,88.000,1.000,56.000,5.000,0
"07/09/06","20:08:35","AMMA06",25762.000,"cc",28325.254,6.00,2832.526,1,6,0.100,15089.000,0.200,9420.000,0.300,1118.000,0.500,93.000,1.000,42.000,5.000,0
"07/09/06","20:08:41","AMMA06",25917.000,"cc",28308.143,6.00,2830.815,1,6,0.100,15069.000,0.200,9581.000,0.300,1136.000,0.500,90.000,1.000,41.000,5.000,0
"07/09/06","20:08:47","AMMA06",25678.000,"cc",28306.693,6.00,2830.669,1,6,0.100,14769.000,0.200,9718.000,0.300,1067.000,0.500,82.000,1.000,42.000,5.000,0
"07/09/06","20:08:53","AMMA06",25549.000,"cc",28296.914,6.00,2829.692,1,6,0.100,14861.000,0.200,9423.000,0.300,1116.000,0.500,98.000,1.000,51.000,5.000,0
"07/09/06","20:08:59","AMMA06",25194.000,"cc",28343.906,6.00,2834.391,1,6,0.100,14678.000,0.200,9215.000,0.300,1146.000,0.500,111.000,1.000,44.000,5.000,0
"07/09/06","20:09:05","AMMA06",25817.000,"cc",28319.715,6.00,2831.972,1,6,0.100,14851.000,0.200,9661.000,0.300,1145.000,0.500,92.000,1.000,68.000,5.000,0
"07/09/06","20:09:11","AMMA06",25510.000,"cc",28300.680,6.00,2830.068,1,6,0.100,14724.000,0.200,9491.000,0.300,1140.000,0.500,112.000,1.000,43.000,5.000,0
"07/09/06","20:09:17","AMMA06",25516.000,"cc",28312.285,6.00,2831.229,1,6,0.100,14762.000,0.200,9526.000,0.300,1097.000,0.500,82.000,1.000,49.000,5.000,0
"07/09/06","20:09:23","AMMA06",25618.000,"cc",28286.191,6.00,2828.619,1,6,0.100,14880.000,0.200,9472.000,0.300,1129.000,0.500,94.000,1.000,43.000,5.000,0
"07/09/06","20:09:29","AMMA06",25661.000,"cc",28284.619,6.00,2828.462,1,6,0.100,14986.000,0.200,9372.000,0.300,1151.000,0.500,92.000,1.000,60.000,5.000,0
"07/09/06","20:09:35","AMMA06",25754.000,"cc",28363.670,6.00,2836.367,1,6,0.100,14895.000,0.200,9595.000,0.300,1130.000,0.500,100.000,1.000,34.000,5.000,0
"07/09/06","20:09:41","AMMA06",26027.000,"cc",28357.322,6.00,2835.732,1,6,0.100,15178.000,0.200,9553.000,0.300,1144.000,0.500,102.000,1.000,50.000,5.000,0
"07/09/06","20:09:47","AMMA06",25547.000,"cc",28265.410,6.00,2826.541,1,6,0.100,14827.000,0.200,9443.000,0.300,1134.000,0.500,104.000,1.000,39.000,5.000,0
"07/09/06","20:09:53","AMMA06",25632.000,"cc",28292.377,6.00,2829.238,1,6,0.100,14916.000,0.200,9465.000,0.300,1108.000,0.500,87.000,1.000,56.000,5.000,0
"07/09/06","20:09:59","AMMA06",25442.000,"cc",28382.432,6.00,2838.243,1,6,0.100,14846.000,0.200,9364.000,0.300,1079.000,0.500,105.000,1.000,48.000,5.000,0
"07/09/06","20:10:05","AMMA06",25754.000,"cc",28296.650,6.00,2829.665,1,6,0.100,15066.000,0.200,9488.000,0.300,1070.000,0.500,76.000,1.000,54.000,5.000,0
"07/09/06","20:10:11","AMMA06",26007.000,"cc",28336.859,6.00,2833.686,1,6,0.100,15183.000,0.200,9577.000,0.300,1111.000,0.500,97.000,1.000,39.000,5.000,0
"07/09/06","20:10:17","AMMA06",25512.000,"cc",28330.232,6.00,2833.023,1,6,0.100,14886.000,0.200,9366.000,0.300,1112.000,0.500,92.000,1.000,56.000,5.000,0
"07/09/06","20:10:23","AMMA06",25440.000,"cc",28277.885,6.00,2827.789,1,6,0.100,14904.000,0.200,9281.000,0.300,1112.000,0.500,95.000,1.000,48.000,5.000,0
"07/09/06","20:10:29","AMMA06",25672.000,"cc",28280.711,6.00,2828.071,1,6,0.100,14954.000,0.200,9501.000,0.300,1091.000,0.500,79.000,1.000,47.000,5.000,0
"07/09/06","20:10:35","AMMA06",25529.000,"cc",28323.553,6.00,2832.356,1,6,0.100,14951.000,0.200,9352.000,0.300,1101.000,0.500,83.000,1.000,42.000,5.000,0
"07/09/06","20:10:41","AMMA06",25321.000,"cc",28319.549,6.00,2831.955,1,6,0.100,14609.000,0.200,9463.000,0.300,1102.000,0.500,106.000,1.000,41.000,5.000,0
"07/09/06","20:10:47","AMMA06",25390.000,"cc",28331.051,6.00,2833.105,1,6,0.100,14825.000,0.200,9379.000,0.300,1054.000,0.500,81.000,1.000,51.000,5.000,0
"07/09/06","20:10:53","AMMA06",25821.000,"cc",28256.434,6.00,2825.644,1,6,0.100,15088.000,0.200,9516.000,0.300,1087.000,0.500,80.000,1.000,50.000,5.000,0
"07/09/06","20:10:59","AMMA06",25862.000,"cc",28331.236,6.00,2833.124,1,6,0.100,15210.000,0.200,9438.000,0.300,1060.000,0.500,100.000,1.000,54.000,5.000,0
"07/09/06","20:11:05","AMMA06",25305.000,"cc",28363.299,6.00,2836.330,1,6,0.100,14845.000,0.200,9277.000,0.300,1020.000,0.500,101.000,1.000,62.000,5.000,0
"07/09/06","20:11:11","AMMA06",25425.000,"cc",28336.352,6.00,2833.635,1,6,0.100,14835.000,0.200,9402.000,0.300,1056.000,0.500,98.000,1.000,34.000,5.000,0
"07/09/06","20:11:17","AMMA06",25436.000,"cc",28271.283,6.00,2827.128,1,6,0.100,14978.000,0.200,9290.000,0.300,1036.000,0.500,83.000,1.000,49.000,5.000,0
"07/09/06","20:11:23","AMMA06",25514.000,"cc",28301.893,6.00,2830.190,1,6,0.100,15077.000,0.200,9281.000,0.300,1018.000,0.500,88.000,1.000,50.000,5.000,0
"07/09/06","20:11:29","AMMA06",25675.000,"cc",28328.940,6.00,2832.894,1,6,0.100,14946.000,0.200,9470.000,0.300,1088.000,0.500,105.000,1.000,66.000,5.000,0
"07/09/06","20:11:35","AMMA06",25822.000,"cc",28333.920,6.00,2833.392,1,6,0.100,15100.000,0.200,9488.000,0.300,1064.000,0.500,106.000,1.000,64.000,5.000,0
"07/09/06","20:11:41","AMMA06",25756.000,"cc",28325.231,6.00,2832.523,1,6,0.100,14983.000,0.200,9485.000,0.300,1120.000,0.500,116.000,1.000,52.000,5.000,0
"07/09/06","20:11:47","AMMA06",25839.000,"cc",28325.057,6.00,2832.506,1,6,0.100,15168.000,0.200,9481.000,0.300,1032.000,0.500,99.000,1.000,59.000,5.000,0
"07/09/06","20:11:53","AMMA06",25667.000,"cc",28336.979,6.00,2833.698,1,6,0.100,15028.000,0.200,9454.000,0.300,1032.000,0.500,101.000,1.000,52.000,5.000,0
"07/09/06","20:11:59","AMMA06",25757.000,"cc",28297.973,6.00,2829.797,1,6,0.100,15265.000,0.200,9266.000,0.300,1087.000,0.500,90.000,1.000,49.000,5.000,0
"07/09/06","20:12:05","AMMA06",26054.000,"cc",28326.668,6.00,2832.667,1,6,0.100,15262.000,0.200,9585.000,0.300,1053.000,0.500,104.000,1.000,50.000,5.000,0
"07/09/06","20:12:11","AMMA06",25749.000,"cc",28329.059,6.00,2832.906,1,6,0.100,15132.000,0.200,9437.000,0.300,1030.000,0.500,109.000,1.000,41.000,5.000,0
"07/09/06","20:12:17","AMMA06",25876.000,"cc",28301.754,6.00,2830.176,1,6,0.100,15192.000,0.200,9481.000,0.300,1071.000,0.500,90.000,1.000,42.000,5.000,0
"07/09/06","20:12:23","AMMA06",25870.000,"cc",28295.219,6.00,2829.522,1,6,0.100,15145.000,0.200,9540.000,0.300,1035.000,0.500,88.000,1.000,62.000,5.000,0
"07/09/06","20:12:29","AMMA06",25798.000,"cc",28303.984,6.00,2830.399,1,6,0.100,15111.000,0.200,9448.000,0.300,1108.000,0.500,86.000,1.000,45.000,5.000,0
"07/09/06","20:12:35","AMMA06",25762.000,"cc",28305.936,6.00,2830.594,1,6,0.100,15077.000,0.200,9442.000,0.300,1097.000,0.500,92.000,1.000,54.000,5.000,0
"07/09/06","20:12:41","AMMA06",25586.000,"cc",28344.586,6.00,2834.459,1,6,0.100,14728.000,0.200,9568.000,0.300,1138.000,0.500,102.000,1.000,50.000,5.000,0
"07/09/06","20:12:47","AMMA06",25727.000,"cc",28366.250,6.00,2836.625,1,6,0.100,15219.000,0.200,9310.000,0.300,1032.000,0.500,113.000,1.000,53.000,5.000,0
"07/09/06","20:12:53","AMMA06",25886.000,"cc",28289.229,6.00,2828.923,1,6,0.100,15156.000,0.200,9527.000,0.300,1072.000,0.500,95.000,1.000,36.000,5.000,0
"07/09/06","20:12:59","AMMA06",25758.000,"cc",28307.299,6.00,2830.730,1,6,0.100,15181.000,0.200,9387.000,0.300,1044.000,0.500,100.000,1.000,46.000,5.000,0
"07/09/06","20:13:05","AMMA06",25854.000,"cc",28316.842,6.00,2831.684,1,6,0.100,15184.000,0.200,9556.000,0.300,970.000,0.500,97.000,1.000,47.000,5.000,0
"07/09/06","20:13:11","AMMA06",25733.000,"cc",28337.906,6.00,2833.791,1,6,0.100,15115.000,0.200,9374.000,0.300,1100.000,0.500,95.000,1.000,49.000,5.000,0
"07/09/06","20:13:17","AMMA06",25580.000,"cc",28266.000,6.00,2826.600,1,6,0.100,14970.000,0.200,9433.000,0.300,1029.000,0.500,102.000,1.000,46.000,5.000,0
"07/09/06","20:13:23","AMMA06",25454.000,"cc",28324.018,6.00,2832.402,1,6,0.100,15083.000,0.200,9170.000,0.300,1051.000,0.500,101.000,1.000,49.000,5.000,0
"07/09/06","20:13:29","AMMA06",25700.000,"cc",28341.559,6.00,2834.156,1,6,0.100,15109.000,0.200,9401.000,0.300,1072.000,0.500,70.000,1.000,48.000,5.000,0
"07/09/06","20:13:35","AMMA06",25690.000,"cc",28352.652,6.00,2835.265,1,6,0.100,15005.000,0.200,9471.000,0.300,1051.000,0.500,114.000,1.000,49.000,5.000,0
"07/09/06","20:13:41","AMMA06",25181.000,"cc",28289.057,6.00,2828.906,1,6,0.100,14714.000,0.200,9246.000,0.300,1069.000,0.500,100.000,1.000,52.000,5.000,0
"07/09/06","20:13:47","AMMA06",25600.000,"cc",28322.803,6.00,2832.281,1,6,0.100,14953.000,0.200,9454.000,0.300,1077.000,0.500,77.000,1.000,39.000,5.000,0
"07/09/06","20:13:53","AMMA06",25696.000,"cc",28357.051,6.00,2835.705,1,6,0.100,14891.000,0.200,9589.000,0.300,1067.000,0.500,89.000,1.000,60.000,5.000,0
"07/09/06","20:13:59","AMMA06",25741.000,"cc",28317.572,6.00,2831.757,1,6,0.100,15094.000,0.200,9417.000,0.300,1080.000,0.500,94.000,1.000,56.000,5.000,0
"07/09/06","20:14:05","AMMA06",25696.000,"cc",28315.652,6.00,2831.565,1,6,0.100,14882.000,0.200,9564.000,0.300,1082.000,0.500,125.000,1.000,43.000,5.000,0
"07/09/06","20:14:11","AMMA06",25810.000,"cc",28301.961,6.00,2830.196,1,6,0.100,15101.000,0.200,9419.000,0.300,1137.000,0.500,113.000,1.000,40.000,5.000,0
"07/09/06","20:14:17","AMMA06",25851.000,"cc",28283.631,6.00,2828.363,1,6,0.100,15104.000,0.200,9549.000,0.300,1053.000,0.500,86.000,1.000,59.000,5.000,0
"07/09/06","20:14:23","AMMA06",25738.000,"cc",28325.254,6.00,2832.526,1,6,0.100,15023.000,0.200,9495.000,0.300,1070.000,0.500,102.000,1.000,48.000,5.000,0
"07/09/06","20:14:29","AMMA06",25642.000,"cc",28312.979,6.00,2831.298,1,6,0.100,14970.000,0.200,9391.000,0.300,1139.000,0.500,99.000,1.000,43.000,5.000,0